[[{"header":{"parameterUnit":"m.s-1","parameterCategory":1,"la1":30.2991,"la2":30.254,"lo1":-89.0895,"lo2":-89.0444,"dy":0.0017,"dx":0.0017,"nx":28,"ny":28,"refTime":"2025-04-23T03:00:00:Z","depth":0,"parameterNumber":2,"parameterNumberName":"U-component_of_WINDS"},"data":[0,0,0,0,0,0,0,0,0,0,0,0,0,0,0,0,0,0,0,0,0,0,0,0,0,0,0,0,0,0,0,0,0,0,0,0,0,0,0,0,0,0,0,0,0,0,0,0,0,0,0,0,0,0,0,0,0,0,-2.4555,-2.4555,0,-2.4542,-2.4542,-2.4542,-2.4476,-2.4474,-2.4473,-2.4471,-2.4458,-2.4459,-2.446,0,0,0,0,0,0,0,0,0,0,0,0,0,-2.4526,-2.4527,-2.4555,-2.4555,-2.4555,-2.4542,-2.4542,-2.4542,-2.4476,-2.4474,-2.4472,-2.447,-2.4458,-2.4459,-2.446,0,0,0,0,0,0,0,0,0,0,0,0,0,-2.4528,-2.4527,-2.4555,-2.4521,-2.4517,-2.4542,-2.4542,-2.4542,-2.4476,-2.4474,-2.4472,-2.447,-2.4457,-2.4459,-2.4461,-2.4518,0,0,-2.4466,-2.4466,0,0,0,0,0,0,0,0,-2.4528,-2.4529,-2.4526,-2.4523,-2.452,-2.4508,-2.4527,-2.4534,-2.4477,-2.4492,-2.4471,-2.4468,-2.4477,-2.4477,-2.4479,-2.4518,-2.4517,-2.4466,-2.4467,-2.4468,-2.4468,0,0,0,0,0,0,0,-2.4528,-2.453,-2.455,-2.4526,-2.4522,-2.4506,-2.4504,-2.4528,-2.4498,-2.4491,-2.4486,-2.4485,-2.4475,-2.4478,-2.4479,-2.4517,-2.4466,-2.4467,-2.4468,-2.4469,-2.4603,-2.4605,0,0,0,0,0,0,-2.4533,-2.453,-2.4551,-2.455,-2.4518,-2.4509,-2.4506,-2.4514,-2.4497,-2.4492,-2.4487,-2.4482,-2.4476,-2.4477,-2.4478,-2.4544,-2.4468,-2.4469,-2.447,-2.46,-2.4603,-2.4606,0,0,0,0,0,0,-2.4532,-2.4535,-2.4551,-2.4539,-2.4539,-2.4512,-2.4521,-2.4515,-2.4518,-2.4495,-2.4489,-2.4496,-2.4474,-2.4476,-2.4509,-2.4543,-2.447,-2.4471,-2.4597,-2.4601,-2.4605,-2.4677,0,0,0,0,0,0,-2.4532,-2.4535,-2.4556,-2.454,-2.454,-2.4582,-2.4523,-2.4517,-2.4521,-2.4515,-2.4501,-2.4497,-2.4473,-2.4507,-2.4511,-2.4544,-2.4473,-2.4594,-2.4599,-2.4604,-2.4671,-2.4683,-2.4693,0,0,0,0,0,-2.4531,-2.4577,-2.4557,-2.456,-2.4566,-2.4584,-2.4584,-2.4555,-2.4524,-2.4545,-2.4531,-2.4497,-2.4539,-2.4511,-2.4514,-2.4549,-2.4592,-2.4598,-2.4603,-2.4667,-2.4681,-2.4692,0,0,0,0,0,0,-2.4597,-2.4574,-2.4552,-2.4594,-2.4592,-2.4573,-2.4598,-2.4571,-2.4577,-2.457,-2.4534,-2.4532,-2.4571,-2.4563,-2.4532,-2.4604,-2.456,-2.4567,-2.4607,-2.462,-2.463,-2.463,-2.4474,0,0,0,0,0,-2.4617,-2.4633,-2.4612,-2.4651,-2.4651,-2.4625,-2.4632,-2.461,-2.4606,-2.4605,-2.4592,-2.459,-2.4602,-2.4611,-2.4621,-2.4671,-2.4667,-2.4697,-2.4708,-2.4716,-2.4722,-2.4748,-2.4761,-2.4625,-2.4625,-2.4625,0,0,-2.4657,-2.4647,-2.4659,-2.4664,-2.466,-2.4678,-2.4625,-2.4646,-2.4659,-2.4608,-2.4638,-2.463,-2.4625,-2.4667,-2.4685,-2.4662,-2.4759,-2.4724,-2.4731,-2.4731,-2.4756,-2.4769,-2.478,-2.4629,-2.4628,-2.4628,0,0,-2.474,-2.4734,-2.4766,-2.4763,-2.4757,-2.474,-2.4748,-2.4734,-2.4726,-2.4757,-2.4719,-2.4735,-2.4757,-2.4755,-2.4758,-2.4844,-2.4813,-2.4848,-2.4902,-2.4929,-2.4939,-2.4949,-2.4979,-2.499,-2.4854,-2.4855,-2.4855,0,-2.479,-2.4816,-2.4786,-2.481,-2.4814,-2.477,-2.4802,-2.4801,-2.4799,-2.4803,-2.4778,-2.4806,-2.48,-2.4841,-2.4862,-2.4866,-2.4874,-2.4848,-2.494,-2.4949,-2.4958,-2.4986,-2.4997,-2.4859,-2.4858,-2.4858,-2.4857,0,-2.4878,-2.4897,-2.4924,-2.4923,-2.4931,-2.4959,-2.4934,-2.4946,-2.4924,-2.491,-2.4943,-2.4934,-2.4942,-2.4951,-2.493,-2.499,-2.4976,-2.4947,-2.4901,-2.4975,-2.5001,-2.5012,-2.4865,-2.4863,-2.4862,-2.4861,0,0,-2.4998,-2.4984,-2.4994,-2.4994,-2.4986,-2.5,-2.5028,-2.5036,-2.5046,-2.5048,-2.5069,-2.5091,-2.5064,-2.5067,-2.5046,-2.5069,-2.5138,-2.5037,-2.5036,-2.5055,-2.5203,-2.5224,-2.5237,-2.5119,-2.5121,-2.5122,-2.5203,0,-2.5077,-2.5121,-2.5097,-2.5145,-2.5163,-2.5123,-2.5147,-2.5145,-2.5134,-2.5148,-2.5136,-2.5151,-2.5115,-2.5116,-2.5138,-2.5125,-2.5167,-2.5119,-2.5139,-2.514,-2.5139,-2.5251,-2.5273,-2.5349,-2.5213,-2.5215,-2.5216,0,-2.5172,-2.5179,-2.5229,-2.522,-2.5226,-2.5248,-2.5254,-2.5268,-2.5266,-2.5257,-2.5261,-2.5236,-2.5263,-2.522,-2.5257,-2.5225,-2.5232,-2.5228,-2.523,-2.5229,-2.5181,-2.5251,-2.5373,-2.5384,-2.5232,-2.5231,-2.523,0,-2.5254,-2.5275,-2.5308,-2.531,-2.53,-2.5316,-2.5313,-2.5309,-2.5316,-2.5323,-2.5327,-2.5337,-2.5342,-2.535,-2.5328,-2.5299,-2.5369,-2.5324,-2.5361,-2.5362,-2.5375,-2.5374,-2.5498,-2.5383,-2.5383,-2.5383,-2.5383,0,-2.5342,-2.5375,-2.5345,-2.5365,-2.5401,-2.5373,-2.541,-2.5402,-2.54,-2.5418,-2.5385,-2.5404,-2.5374,-2.539,-2.5374,-2.5407,-2.541,-2.5403,-2.5397,-2.5404,-2.5405,-2.5407,-2.54,-2.5386,-2.5385,-2.5385,-2.5384,0,-2.5438,-2.5419,-2.5453,-2.5442,-2.544,-2.5467,-2.5457,-2.5476,-2.5464,-2.5488,-2.5492,-2.5473,-2.549,-2.547,-2.5485,-2.5474,-2.5519,-2.5507,-2.5519,-2.5515,-2.5553,-2.5549,-2.568,-2.5696,-2.5573,-2.5575,-2.5576,0,-2.5494,-2.5518,-2.551,-2.5521,-2.552,-2.5537,-2.5544,-2.552,-2.5529,-2.553,-2.5549,-2.5564,-2.5574,-2.5603,-2.5591,-2.5603,-2.559,-2.5635,-2.5591,-2.5598,-2.5589,-2.5587,-2.5589,-2.5643,-2.5644,-2.5646,-2.5647,0,-2.5596,-2.5586,-2.5599,-2.5609,-2.5619,-2.5626,-2.563,-2.5641,-2.5615,-2.5628,-2.5645,-2.5653,-2.567,-2.5684,-2.5694,-2.5691,-2.5665,-2.5661,-2.567,-2.5676,-2.5682,-2.5678,-2.5542,-2.5658,-2.5656,-2.5656,-2.5655,-2.5655,-2.5672,-2.5692,-2.569,-2.5706,-2.5707,-2.5712,-2.573,-2.5721,-2.5735,-2.5746,-2.5731,-2.5753,-2.5753,-2.5762,-2.5763,-2.578,-2.576,-2.5774,-2.5777,-2.578,-2.5785,-2.5682,-2.5782,-2.5781,-2.5781,-2.5781,-2.5781,0,-2.5771,-2.5769,-2.5784,-2.5791,-2.5804,-2.578,-2.5785,-2.5796,-2.5816,-2.5818,-2.5829,-2.585,-2.5865,-2.5856,-2.5869,-2.5884,-2.5873,-2.5888,-2.5886,-2.5885,-2.5802,-2.5792,-2.5897,-2.5897,-2.5897,-2.5897,-2.5897,-2.5897,-2.5824,-2.5857,-2.5848,-2.5881,-2.5879,-2.59,-2.5904,-2.591,-2.5911,-2.5936,-2.5949,-2.5943,-2.594,-2.5953,-2.5966,-2.5963,-2.5969,-2.5989,-2.5981,-2.5903,-2.5891,-2.588,-2.5871,-2.599,-2.5991,-2.6063,-2.6063,-2.6064]},{"header":{"parameterUnit":"m.s-1","parameterCategory":1,"la1":30.2991,"la2":30.254,"lo1":-89.0895,"lo2":-89.0444,"dy":0.0017,"dx":0.0017,"nx":28,"ny":28,"refTime":"2025-04-23T03:00:00:Z","depth":0,"parameterNumber":3,"parameterNumberName":"V-component_of_WINDS"},"data":[0,0,0,0,0,0,0,0,0,0,0,0,0,0,0,0,0,0,0,0,0,0,0,0,0,0,0,0,0,0,0,0,0,0,0,0,0,0,0,0,0,0,0,0,0,0,0,0,0,0,0,0,0,0,0,0,0,0,0.946,0.9459,0,0.939,0.9389,0.9388,0.9332,0.9331,0.9331,0.933,0.9257,0.9256,0.9254,0,0,0,0,0,0,0,0,0,0,0,0,0,0.9546,0.9545,0.946,0.9459,0.9458,0.939,0.9389,0.9388,0.9332,0.9331,0.9331,0.933,0.9258,0.9256,0.9254,0,0,0,0,0,0,0,0,0,0,0,0,0,0.9496,0.9545,0.946,0.9422,0.9418,0.939,0.9389,0.9387,0.9332,0.9331,0.9331,0.933,0.9258,0.9256,0.9254,0.9258,0,0,0.9248,0.9247,0,0,0,0,0,0,0,0,0.9499,0.9493,0.9429,0.9425,0.942,0.9369,0.9392,0.9344,0.9332,0.9365,0.933,0.9329,0.9295,0.929,0.9278,0.9254,0.9251,0.9247,0.9246,0.9245,0.9245,0,0,0,0,0,0,0,0.9502,0.9495,0.9432,0.9428,0.9423,0.9409,0.9401,0.9383,0.9335,0.9362,0.9358,0.935,0.9292,0.9281,0.9276,0.925,0.9247,0.9246,0.9244,0.9243,0.9227,0.9228,0,0,0,0,0,0,0.9512,0.9499,0.9434,0.943,0.9458,0.9408,0.9399,0.9386,0.9335,0.9327,0.9351,0.9348,0.9285,0.9279,0.9273,0.9275,0.9245,0.9243,0.9242,0.9226,0.9227,0.9228,0,0,0,0,0,0,0.9514,0.9506,0.9437,0.9463,0.9453,0.9407,0.9393,0.9385,0.9373,0.9327,0.9318,0.9347,0.9284,0.9276,0.9262,0.9272,0.9242,0.924,0.9225,0.9226,0.9227,0.9278,0,0,0,0,0,0,0.9516,0.9508,0.9508,0.9464,0.9452,0.9427,0.9394,0.9384,0.937,0.9365,0.9322,0.9314,0.9283,0.9266,0.926,0.9268,0.9239,0.9224,0.9225,0.9227,0.9275,0.928,0.9285,0,0,0,0,0,0.952,0.9525,0.9508,0.9501,0.9452,0.9428,0.9421,0.9386,0.9371,0.9371,0.9342,0.9315,0.9272,0.9265,0.9258,0.9265,0.9223,0.9225,0.9227,0.9273,0.9279,0.9285,0,0,0,0,0,0,0.957,0.9518,0.9499,0.949,0.9464,0.9418,0.9418,0.9394,0.9371,0.9367,0.9324,0.9315,0.9306,0.9284,0.9277,0.9267,0.9244,0.9245,0.9281,0.9287,0.9292,0.9297,0.9237,0,0,0,0,0,0.9581,0.9566,0.9521,0.9517,0.9505,0.9464,0.9452,0.9427,0.9398,0.9386,0.9356,0.9329,0.9309,0.9297,0.9276,0.9272,0.9262,0.9274,0.9279,0.9283,0.9284,0.9282,0.9286,0.9234,0.9234,0.9234,0,0,0.9601,0.9571,0.9564,0.9526,0.9503,0.9489,0.9455,0.944,0.9429,0.9384,0.9369,0.9346,0.9313,0.9304,0.9299,0.9286,0.9297,0.9286,0.929,0.9288,0.9284,0.9289,0.9293,0.9235,0.9235,0.9235,0,0,0.9632,0.9607,0.9601,0.958,0.9545,0.9518,0.9517,0.9476,0.9459,0.9444,0.941,0.9396,0.9363,0.9341,0.9326,0.9351,0.9325,0.9345,0.9372,0.9369,0.9374,0.9377,0.9386,0.939,0.9346,0.9346,0.9347,0,0.9661,0.9638,0.9602,0.959,0.9575,0.9534,0.9529,0.9509,0.947,0.946,0.9447,0.9406,0.938,0.9366,0.9373,0.9362,0.9359,0.9349,0.9376,0.9379,0.9382,0.939,0.9394,0.9349,0.9349,0.9349,0.9348,0,0.9677,0.9662,0.9662,0.9626,0.9611,0.9602,0.9564,0.9554,0.9531,0.9506,0.9491,0.946,0.9433,0.9428,0.9405,0.9411,0.9404,0.9384,0.936,0.939,0.9397,0.94,0.9353,0.9352,0.9351,0.9351,0,0,0.9736,0.9681,0.9682,0.9666,0.9626,0.9613,0.9604,0.9578,0.957,0.9545,0.9536,0.951,0.9492,0.9474,0.9449,0.9447,0.9469,0.9427,0.9425,0.9436,0.9475,0.9491,0.9495,0.9453,0.9453,0.9454,0.9478,0,0.976,0.974,0.9708,0.9699,0.9685,0.9647,0.9639,0.9614,0.9591,0.9576,0.955,0.9532,0.9509,0.9499,0.9495,0.9467,0.9477,0.9465,0.9444,0.9444,0.9453,0.9499,0.9514,0.9539,0.9481,0.9481,0.9481,0,0.9784,0.9763,0.9753,0.9716,0.9709,0.9702,0.9676,0.9662,0.9634,0.9617,0.9599,0.9572,0.956,0.9539,0.9523,0.9516,0.9505,0.9491,0.9491,0.9487,0.9464,0.9496,0.9546,0.955,0.9485,0.9485,0.9485,0,0.9829,0.9797,0.9787,0.9774,0.9731,0.9727,0.9709,0.9679,0.9667,0.9645,0.9636,0.9613,0.96,0.9583,0.955,0.9538,0.9538,0.9514,0.9524,0.9525,0.9525,0.9525,0.9574,0.9519,0.9519,0.9519,0.9519,0,0.9859,0.9854,0.9807,0.9801,0.9795,0.9758,0.9753,0.9731,0.9706,0.9696,0.9662,0.9652,0.961,0.9596,0.9571,0.9562,0.9556,0.9542,0.9536,0.9545,0.9547,0.9538,0.9535,0.952,0.952,0.9519,0.9519,0,0.9907,0.9875,0.9862,0.9822,0.9812,0.981,0.9776,0.9769,0.9745,0.9732,0.9727,0.9688,0.967,0.9636,0.9608,0.9591,0.9588,0.9576,0.9598,0.9594,0.9606,0.9605,0.9649,0.9654,0.9597,0.9597,0.9598,0,0.9928,0.9924,0.9884,0.9875,0.9858,0.9844,0.9831,0.9795,0.9783,0.9752,0.9749,0.9729,0.971,0.9683,0.9653,0.9632,0.9619,0.9636,0.9616,0.9626,0.962,0.9621,0.962,0.9641,0.9642,0.9642,0.9643,0,0.9969,0.9954,0.9937,0.9915,0.9901,0.9882,0.9861,0.9855,0.9815,0.9803,0.9785,0.9771,0.9743,0.9724,0.9699,0.968,0.9655,0.965,0.9651,0.9661,0.9674,0.9667,0.961,0.9649,0.9648,0.9648,0.9647,0.9647,1.0004,0.9999,0.9971,0.9954,0.9935,0.9916,0.9908,0.9884,0.9868,0.9843,0.9823,0.9807,0.978,0.9744,0.9727,0.9714,0.9702,0.9703,0.9704,0.9705,0.9709,0.9676,0.9709,0.9709,0.9708,0.9708,0.9708,0,1.0044,1.0024,1.0009,0.9981,0.9968,0.9947,0.9923,0.9913,0.99,0.9877,0.986,0.984,0.9821,0.979,0.9769,0.9765,0.9753,0.976,0.976,0.9756,0.9721,0.9722,0.977,0.977,0.977,0.977,0.977,0.977,1.0063,1.0054,1.0036,1.0017,0.9998,0.9982,0.997,0.9954,0.9935,0.9914,0.9899,0.9879,0.9854,0.9831,0.9813,0.9804,0.9798,0.9809,0.9797,0.9764,0.9759,0.9753,0.9754,0.9808,0.9808,0.9834,0.9834,0.9834]}]]